Location: Austin
(30.3000°N, 97.7500°W)
Time: 08:03:56
(UTC-06:00)

USA 32 - Pass Details

Date: 10 January 2026
Orbit: 775 x 779 km, 85.0° (Epoch: 22 January)

Event Time Altitude Azimuth Distance (km) Brightness Sun altitude
Rises 18:28:28 0° 356° (N) 3,260 7.1 -8.7°
Reaches altitude 10° 18:30:49 10° 356° (N) 2,329 6.3 -9.2°
Maximum altitude 18:36:03 87° 269° (W) 781 4.1 -10.3°
Drops below altitude 10° 18:41:15 10° 179° (S) 2,314 6.7 -11.3°
Sets 18:43:35 0° 179° (S) 3,237 7.5 -11.8°
